Dewpoint
11 10 10 11 10 10 9 8 8 8 8 9 9 9 9 8 8 8 8 8 7 8 7 7 7 7 7 8 7 7 5 4 4 5 8 7 8 8 7 8 8 9 10
9 10 9 4 4 2 1 0 1 0 -1 0 2 6 6 8 8 8 8 8 8 7 6 6 4 3 5 6 6 6 6 5 5 5 5 5 6 7 8 9 9 9 10
4 4 3 0 -2 -4 -5 -5 -4 -4 -2 5 2 4 3 2 3 6 7 6 5 5 4 3 1 -2 -5 -5 4 5 3 2 1 -0 3 5 5 6 7 7 8 10 10
-1 -1 -2 -4 -6 -8 -9 -9 -9 -9 -8 -2 -1 1 3 2 1 4 5 4 4 3 1 -4 -5 -5 -5 -5 -5 1 6 3 -0 1 1 4 6 5 7 7 7 7 9
-1 -3 -4 -6 -7 -10 -11 -11 -12 -12 -12 -11 -10 -8 -8 -8 -6 -1 3 4 3 -1 -3 -5 -4 -2 -1 0 -2 -0 3 2 2 2 2 1 7 9 8 7 8 8 7
-3 -4 -5 -7 -9 -10 -11 -12 -12 -12 -12 -12 -12 -12 -12 -10 -9 -7 -4 2 2 0 -3 -2 -0 4 6 6 2 1 0 2 2 4 6 6 7 9 8 8 8 6 3
-3 -4 -5 -7 -9 -11 -12 -12 -12 -12 -11 -10 -11 -10 -9 -9 -4 -2 -3 -2 0 -1 -2 -2 0 3 5 5 5 2 1 2 2 5 7 8 7 6 5 4 5 6 5
-3 -4 -5 -6 -8 -10 -11 -11 -11 -11 -11 -9 -7 -8 -2 -3 0 1 1 -2 -4 -3 -1 -1 1 2 6 5 5 3 1 1 1 2 4 4 5 4 4 4 3 4 4
-3 -3 -4 -5 -6 -8 -8 -9 -9 -10 -9 -7 -7 -7 -2 1 3 3 2 1 2 0 -1 1 2 4 5 5 5 4 2 2 2 2 2 1 0 1 2 4 4 4 4
-1 -2 -3 -3 -4 -5 -5 -5 -6 -6 -7 -8 -7 -6 -3 -3 -1 -0 4 3 1 3 2 1 2 3 3 2 2 2 2 3 3 3 3 3 3 3 3 3 6 7 7
-0 -1 -1 -1 -2 -2 -3 -4 -4 -4 -5 -6 -7 -5 -4 -1 -1 2 1 2 3 2 3 2 2 3 4 2 0 -0 -0 -0 3 5 5 7 7 7 7 7 7 6 6
0 -0 -1 -0 -0 -3 -4 -4 -3 -3 -3 -4 -5 -5 -4 -2 -0 3 3 2 2 2 2 3 1 3 4 4 2 1 1 0 0 3 5 5 5 5 5 4 5 4 4
1 0 0 1 -1 -3 -4 -3 -3 -2 -1 -1 -2 -3 -4 -4 -1 0 2 2 2 2 3 3 1 3 3 3 3 2 1 1 1 1 2 1 1 1 2 4 4 4 4
2 1 1 1 -2 -3 -3 -3 -2 -1 -0 0 -0 -1 -3 -3 -1 -0 0 2 1 1 2 1 0 3 3 3 3 2 2 1 0 0 -0 -0 0 0 -0 -0 -1 -1 -1
3 2 1 -1 -2 -2 -3 -2 -2 0 1 1 1 0 -1 -2 -2 -1 -0 -1 1 1 1 1 1 1 1 1 3 2 2 1 0 0 -0 0 -1 -0 -1 -1 -1 -2 -2
3 2 2 -1 -2 -2 -2 -2 -1 1 1 2 1 1 0 -1 -1 0 -1 -1 -1 -0 1 1 1 1 0 1 2 3 2 2 0 -0 -0 -0 -0 0 -0 -0 -2 -3 -2
4 3 2 -1 -2 -3 -2 -1 -2 -1 1 1 2 1 1 -0 1 1 1 0 -1 -1 -2 -1 0 0 0 1 2 2 2 2 1 0 0 0 0 1 -0 -1 -2 -2 -2
4 3 1 -2 -3 -2 -1 -2 -2 -1 -1 1 1 1 1 0 1 1 1 1 -0 -0 -1 -0 1 1 -0 1 2 2 1 0 1 0 1 1 1 1 0 -0 -1 -1 -1
4 3 1 -2 -1 -1 -1 0 -0 -2 1 1 1 0 0 1 1 1 1 1 1 0 0 0 0 1 1 0 1 1 1 0 -0 -0 1 1 0 -0 -0 -0 -1 -2 -2
4 3 -1 -1 -1 -0 0 0 -1 1 1 0 -1 -1 -0 -0 -0 0 1 1 0 -0 -0 0 0 1 0 0 0 0 -0 -0 -0 -1 0 -0 -0 -0 -1 -1 -2 -2 -2
4 1 -0 -0 1 1 1 1 -0 0 -1 -1 -1 -1 -0 -1 -1 -1 -0 -1 -0 -0 -0 -0 -0 -0 0 -0 -0 -1 -1 -0 -0 0 -0 -0 -1 -1 -1 -2 -2 -2 -3
2 1 1 1 1 1 2 1 0 -1 -1 -1 -1 -0 -2 -2 -2 -2 -2 -1 -1 -1 -0 -0 -0 -0 -0 -0 -1 -1 -1 -1 -1 -1 -1 -2 -2 -1 -2 -2 -2 -3 -6
2 2 2 2 2 2 1 1 -0 -1 -1 -1 -1 -2 -2 -2 -2 -2 -2 -1 -1 -2 -1 -1 -1 -1 -1 -1 -1 -1 -1 -1 -1 -1 -2 -2 -2 -2 -3 -3 -3 -4 -10
2 2 2 2 1 1 2 1 0 -1 -1 -2 -2 -2 -3 -2 -3 -3 -2 -2 -2 -2 -2 -2 -2 -1 -1 -1 -1 -1 -1 -1 -2 -2 -2 -2 -3 -3 -4 -4 -4 -7 -11
2 1 1 0 0 1 1 0 0 0 -1 -2 -2 -2 -3 -3 -3 -3 -3 -3 -3 -2 -2 -2 -2 -2 -1 -1 -1 -1 -1 -2 -2 -2 -3 -3 -3 -4 -5 -6 -7 -9 -12
1 0 0 0 1 1 1 0 0 -1 -2 -2 -2 -3 -3 -3 -3 -3 -3 -3 -2 -3 -2 -2 -2 -2 -2 -2 -2 -2 -2 -2 -3 -3 -3 -6 -8 -7 -9 -9 -10 -15 -17
Wind_Speed
5 8 5 4 4 6 6 7 7 9 8 9 6 8 8 8 8 9 11 13 12 12 13 14 14 15 15 15 15 15 14 12 11 12 13 15 18 18 16 17 18 18 18
8 7 8 8 9 7 8 8 8 9 9 9 8 11 11 11 11 12 13 15 15 15 14 15 16 17 18 18 17 18 18 17 17 16 15 14 14 18 17 18 19 19 18
10 9 9 9 9 8 8 8 8 9 7 6 9 9 9 10 10 9 10 14 14 16 15 15 15 15 16 16 17 18 19 19 18 18 18 20 19 18 18 17 14 17 18
10 9 9 9 7 8 7 8 8 8 8 8 9 8 10 12 11 10 12 13 15 16 16 16 15 14 14 15 14 13 14 16 17 17 18 18 19 20 19 21 20 16 6
10 10 9 9 7 8 7 7 8 7 7 9 9 10 11 12 11 11 12 11 17 17 13 13 14 13 13 12 14 14 13 16 16 16 19 18 16 16 15 15 17 22 24
11 11 9 9 7 7 7 6 7 8 8 9 10 11 12 12 13 13 12 13 15 16 14 12 10 9 11 12 12 14 14 14 13 13 14 14 15 14 15 14 13 18 14
13 12 11 9 8 8 7 7 7 8 8 10 10 10 10 11 11 10 13 13 12 15 14 11 10 9 8 10 12 11 13 13 12 10 8 8 10 10 11 13 15 17 18
14 14 12 11 9 8 8 7 7 8 8 9 8 10 6 8 10 11 11 11 13 14 15 14 11 9 4 5 10 10 10 11 11 12 11 9 8 8 10 10 10 11 12
18 17 14 12 10 9 8 7 8 8 9 10 11 7 3 2 4 8 10 13 11 13 14 11 9 5 5 6 8 9 8 7 10 10 12 14 16 15 15 14 13 13 16
20 18 15 13 12 10 9 8 9 10 11 11 12 12 10 13 8 4 7 9 15 12 13 12 11 8 9 9 10 8 7 6 6 5 6 5 8 13 15 13 10 9 16
23 19 17 15 13 11 10 10 11 12 13 13 13 13 14 13 12 14 17 11 9 14 13 11 13 8 9 10 11 6 7 7 4 3 5 12 10 11 10 16 19 16 9
23 21 19 17 15 13 11 10 12 14 14 15 14 14 14 14 12 9 14 16 14 12 15 15 16 8 10 11 8 7 6 5 6 4 4 6 3 4 8 7 5 2 4
23 23 20 18 16 14 12 12 13 14 14 15 14 15 15 15 16 18 20 20 18 10 12 16 18 12 12 13 9 9 7 6 5 5 6 8 9 8 6 4 12 8 5
23 22 21 20 17 14 12 14 15 14 15 15 15 15 15 16 18 18 19 19 18 16 17 18 19 9 11 14 11 9 8 6 5 5 6 6 5 4 4 5 5 5 6
24 24 23 21 17 14 13 14 14 14 14 15 16 16 16 16 16 19 19 17 18 15 15 16 13 15 13 12 12 11 10 8 7 7 6 5 4 4 4 4 4 5 6
26 25 23 21 18 15 13 13 14 13 16 16 17 17 16 16 15 18 18 16 16 17 17 11 17 15 13 12 12 13 12 11 10 8 6 7 6 6 5 4 3 3 3
28 25 25 22 19 15 12 12 12 14 16 17 16 17 16 15 15 14 14 15 15 14 14 16 16 16 14 12 14 13 12 10 9 7 10 11 9 6 6 5 4 4 3
29 26 26 24 20 15 11 10 13 15 20 18 16 17 18 17 17 16 17 15 13 12 11 13 16 16 18 17 18 18 17 15 13 9 10 8 9 7 6 5 4 4 5
30 28 26 23 18 14 13 17 13 22 18 18 17 18 16 15 15 17 19 19 17 18 22 22 24 24 25 24 22 16 22 13 7 9 9 14 10 8 7 7 6 5 7
31 29 25 21 19 16 16 15 20 17 18 18 18 18 17 17 19 22 22 22 22 22 19 19 21 17 22 23 20 18 15 10 9 10 15 12 9 13 6 5 3 5 7
29 25 22 21 21 22 18 17 16 18 18 17 19 18 19 20 21 22 22 23 24 20 18 17 18 17 17 20 20 17 14 12 16 19 17 18 15 10 8 6 5 5 7
23 22 24 23 21 18 18 17 18 16 16 17 18 19 18 16 16 18 16 13 13 17 15 21 14 20 19 16 20 20 15 20 18 15 14 10 12 11 8 7 6 7 4
27 25 25 22 18 19 16 20 17 15 15 15 17 16 15 13 15 16 14 15 14 16 15 17 18 20 18 19 17 16 17 17 19 15 16 16 13 10 8 8 8 7 5
21 17 17 16 16 19 19 18 15 14 15 13 12 13 14 13 10 10 12 13 11 13 16 17 17 16 16 14 13 12 15 18 14 14 14 15 14 11 10 9 9 8 6
28 20 17 13 17 21 22 17 16 14 13 10 9 12 11 7 8 8 8 11 14 13 13 13 11 13 14 11 12 15 16 16 16 16 17 14 16 12 10 9 9 8 7
18 17 17 21 22 18 19 17 13 12 12 7 8 12 8 6 5 10 9 9 7 6 7 9 11 12 12 14 15 13 16 17 15 15 16 13 13 12 9 10 8 8 6
Wind_Direction
208 209 214 211 233 250 256 260 268 261 264 250 275 280 288 291 293 287 285 290 294 295 296 293 289 287 286 282 282 280 277 276 277 275 277 279 275 263 259 259 263 265 265
219 202 233 240 246 259 271 277 279 282 286 284 275 262 269 269 272 278 286 290 293 294 294 292 290 288 285 283 281 278 277 275 272 271 275 269 272 271 267 263 260 259 264
222 227 238 251 260 271 271 275 278 286 291 288 297 301 313 303 294 291 295 292 295 294 296 297 297 296 294 291 283 280 278 276 274 274 270 269 270 265 262 265 270 263 249
238 234 247 254 270 271 276 275 279 281 274 271 278 270 259 278 280 284 279 286 283 288 292 297 300 301 296 291 289 291 293 284 275 274 272 274 271 267 259 261 261 270 238
234 242 246 261 269 277 282 282 281 287 283 280 285 287 285 285 285 269 270 275 283 292 299 296 297 306 297 289 281 276 281 281 281 274 275 276 275 270 260 270 271 255 251
235 242 249 262 269 270 272 278 280 291 298 293 291 294 297 295 297 288 275 265 283 293 298 295 294 311 320 320 293 278 277 284 287 282 275 266 267 262 258 259 229 260 278
235 239 243 247 249 258 269 277 283 292 296 298 304 300 307 307 306 307 297 292 286 294 302 301 288 259 290 305 315 297 278 278 276 283 277 259 259 254 255 257 253 250 251
237 238 242 245 246 248 251 262 273 281 289 295 305 311 328 328 278 291 307 306 300 299 302 299 294 296 322 314 302 309 295 279 272 268 271 269 260 248 251 252 252 245 234
234 236 238 241 242 247 257 267 280 284 285 289 295 288 291 265 313 273 299 307 312 316 314 295 301 297 284 279 289 300 311 292 277 273 264 259 260 261 258 250 249 248 234
238 238 240 242 243 244 252 266 276 283 284 280 273 282 270 261 277 275 259 292 304 309 312 287 285 279 282 280 286 293 292 296 326 304 280 285 273 249 247 242 215 180 130
240 239 238 240 243 243 247 261 277 283 282 279 272 266 269 275 268 263 281 282 276 303 297 289 276 268 276 273 287 297 281 277 291 32 133 80 90 114 138 153 138 132 127
240 238 238 241 243 243 253 269 279 283 283 281 277 272 267 265 269 270 275 285 287 281 268 280 293 255 254 268 269 266 271 276 269 236 271 260 331 351 78 43 93 53 66
240 240 240 243 241 244 259 273 280 282 281 279 277 275 271 268 265 256 257 262 268 272 256 275 287 245 247 255 259 245 243 252 263 268 272 292 302 298 300 101 97 98 70
249 243 241 240 239 248 264 276 280 280 281 282 281 274 270 265 262 264 262 262 267 260 268 276 291 258 242 243 250 239 236 233 250 269 280 283 291 301 299 318 335 326 325
245 242 238 236 239 250 265 277 280 281 281 279 278 278 277 271 263 261 264 256 253 258 258 258 258 273 261 246 228 229 229 233 242 257 277 278 291 275 289 307 309 323 330
240 241 236 235 239 249 264 273 276 279 282 280 281 278 276 273 266 264 265 257 247 249 251 249 252 271 277 237 231 230 230 231 233 247 263 287 281 260 256 243 269 296 304
235 236 236 234 240 248 258 270 278 280 279 279 275 276 276 269 261 258 259 253 245 241 245 250 261 269 269 238 224 231 238 224 225 239 265 254 245 221 224 237 247 262 273
239 233 229 230 235 234 248 267 284 289 280 271 273 272 271 267 254 250 254 257 244 250 255 264 267 257 263 238 237 234 229 245 247 258 246 231 225 208 229 254 242 274 288
237 232 227 227 225 230 247 280 278 283 268 267 268 271 268 260 253 249 248 250 250 261 263 267 271 270 251 240 235 215 252 232 247 232 227 213 238 209 235 237 231 287 301
238 233 225 217 224 234 266 265 268 261 259 263 269 272 264 256 260 259 255 261 264 270 272 263 261 242 244 232 220 254 220 219 222 228 227 177 172 186 220 233 272 311 319
237 225 220 225 233 253 247 251 259 260 256 263 269 266 262 269 270 268 265 273 269 266 257 257 251 231 226 224 229 217 215 206 183 185 213 202 190 201 222 265 271 290 303
228 229 240 236 239 233 238 247 249 244 258 268 264 264 261 269 268 273 263 264 248 254 255 240 243 247 248 242 234 219 205 200 194 204 198 210 220 213 217 242 258 283 288
232 232 234 234 235 239 232 241 232 244 266 272 269 266 263 261 269 271 252 259 265 263 254 249 239 241 232 238 226 221 222 221 228 218 211 195 204 215 211 234 258 277 283
238 239 237 234 241 252 248 228 232 254 271 266 270 267 265 257 262 267 263 259 254 251 250 257 253 242 228 220 218 216 229 224 203 200 201 199 200 200 213 232 253 277 293
245 236 229 224 252 254 248 226 237 265 263 265 262 280 276 281 252 251 254 248 268 263 251 244 231 218 220 216 216 214 202 197 187 185 190 198 199 211 215 231 248 267 281
222 223 247 253 253 241 238 224 251 255 262 248 268 281 277 271 216 250 253 246 236 228 235 229 219 213 211 201 200 205 197 182 194 186 196 191 198 201 205 231 242 262 266
Height
1552 1552 1553 1553 1554 1554 1554 1555 1555 1554 1555 1555 1555 1555 1555 1554 1554 1554 1553 1552 1552 1552 1551 1551 1550 1550 1550 1550 1550 1550 1548 1548 1548 1548 1548 1548 1549 1548 1548 1548 1548 1549 1549
1550 1551 1551 1551 1551 1552 1552 1552 1553 1553 1553 1553 1553 1553 1553 1553 1553 1552 1552 1550 1550 1549 1549 1548 1547 1547 1547 1547 1547 1547 1546 1546 1545 1544 1545 1545 1545 1544 1545 1544 1543 1544 1546
1548 1549 1550 1550 1550 1550 1550 1550 1550 1550 1550 1550 1550 1550 1550 1550 1550 1550 1549 1548 1548 1546 1545 1545 1544 1544 1543 1543 1543 1543 1542 1542 1542 1541 1541 1541 1540 1540 1540 1541 1540 1540 1542
1546 1547 1547 1547 1548 1548 1548 1548 1548 1548 1548 1547 1547 1547 1546 1546 1546 1547 1546 1546 1544 1543 1543 1541 1540 1540 1539 1539 1539 1539 1539 1538 1537 1537 1537 1537 1536 1536 1536 1536 1537 1536 1538
1544 1545 1546 1546 1546 1546 1546 1546 1546 1546 1546 1546 1545 1544 1544 1544 1544 1544 1544 1544 1542 1540 1540 1538 1537 1536 1536 1535 1535 1535 1535 1535 1534 1534 1534 1534 1533 1532 1533 1533 1532 1532 1533
1541 1542 1543 1544 1544 1544 1544 1544 1544 1544 1544 1544 1543 1543 1542 1542 1541 1541 1540 1540 1538 1537 1537 1536 1535 1534 1534 1532 1531 1531 1532 1532 1530 1530 1530 1530 1530 1529 1530 1530 1532 1531 1531
1538 1539 1540 1540 1540 1541 1541 1541 1542 1542 1542 1542 1541 1540 1539 1538 1538 1538 1537 1537 1537 1535 1535 1534 1533 1533 1532 1531 1529 1528 1528 1529 1529 1528 1527 1527 1527 1527 1528 1528 1527 1527 1526
1535 1536 1536 1537 1538 1538 1537 1538 1539 1539 1538 1538 1538 1539 1537 1537 1535 1536 1536 1535 1533 1533 1532 1531 1530 1530 1530 1530 1528 1527 1526 1526 1525 1525 1525 1524 1524 1525 1525 1524 1525 1525 1525
1530 1531 1532 1533 1534 1535 1535 1536 1535 1535 1536 1536 1536 1536 1535 1536 1535 1535 1534 1533 1532 1531 1531 1529 1529 1528 1527 1527 1526 1525 1524 1524 1523 1521 1521 1521 1521 1521 1521 1521 1522 1522 1522
1526 1528 1530 1530 1531 1532 1532 1532 1532 1533 1533 1533 1533 1533 1532 1532 1532 1532 1531 1530 1530 1529 1528 1527 1527 1526 1526 1525 1524 1524 1524 1523 1522 1521 1519 1519 1517 1517 1517 1518 1517 1518 1517
1523 1525 1526 1527 1528 1528 1528 1529 1529 1530 1529 1529 1529 1529 1528 1528 1529 1528 1526 1526 1525 1526 1524 1524 1524 1525 1523 1523 1522 1522 1523 1522 1522 1522 1519 1518 1517 1517 1516 1514 1514 1514 1511
1520 1521 1523 1524 1525 1525 1525 1526 1527 1526 1527 1527 1527 1527 1527 1527 1527 1527 1526 1525 1523 1521 1522 1520 1521 1522 1521 1520 1521 1521 1521 1521 1521 1520 1520 1519 1519 1518 1517 1508 1511 1515 1516
1516 1517 1520 1521 1521 1521 1521 1522 1522 1523 1523 1523 1522 1522 1522 1522 1523 1523 1522 1521 1521 1518 1517 1517 1518 1518 1517 1517 1519 1520 1519 1520 1520 1519 1519 1518 1519 1519 1519 1519 1516 1518 1517
1512 1514 1516 1517 1517 1517 1517 1518 1518 1518 1518 1519 1519 1518 1516 1516 1518 1518 1518 1519 1518 1517 1515 1515 1514 1514 1514 1514 1516 1517 1519 1518 1518 1518 1518 1518 1518 1518 1517 1515 1516 1517 1517
1506 1508 1509 1511 1512 1513 1513 1514 1514 1514 1514 1513 1513 1514 1514 1513 1513 1514 1514 1515 1514 1513 1512 1511 1511 1512 1513 1512 1513 1515 1515 1516 1516 1516 1518 1517 1517 1517 1518 1518 1518 1518 1517
1499 1503 1504 1506 1507 1508 1509 1508 1509 1509 1509 1509 1510 1509 1509 1510 1510 1511 1511 1511 1511 1510 1509 1508 1508 1508 1510 1510 1511 1512 1512 1513 1514 1516 1516 1516 1516 1517 1517 1517 1518 1519 1519
1490 1494 1499 1499 1501 1503 1503 1504 1504 1504 1504 1505 1505 1505 1506 1506 1507 1507 1507 1506 1506 1506 1504 1506 1505 1506 1507 1508 1508 1509 1510 1510 1512 1514 1514 1514 1515 1516 1515 1516 1518 1518 1518
1488 1487 1489 1491 1494 1495 1497 1498 1500 1498 1500 1499 1499 1500 1500 1501 1502 1503 1502 1502 1503 1505 1504 1502 1502 1502 1503 1505 1505 1505 1506 1508 1509 1510 1511 1512 1513 1513 1513 1515 1515 1516 1515
1482 1482 1483 1484 1488 1489 1490 1491 1492 1493 1495 1495 1495 1496 1497 1499 1498 1500 1499 1498 1499 1499 1500 1497 1499 1497 1498 1499 1500 1499 1502 1504 1506 1508 1509 1508 1511 1511 1512 1513 1514 1514 1513
1476 1477 1478 1479 1481 1481 1484 1484 1486 1488 1490 1490 1490 1491 1492 1493 1494 1493 1493 1492 1492 1492 1493 1493 1493 1491 1492 1494 1495 1497 1499 1501 1503 1505 1507 1509 1509 1510 1511 1512 1512 1513 1513
1470 1471 1472 1474 1477 1475 1477 1479 1480 1483 1484 1484 1484 1485 1485 1485 1487 1487 1486 1487 1488 1487 1486 1487 1487 1487 1488 1489 1492 1494 1497 1499 1501 1503 1505 1506 1508 1510 1510 1511 1511 1511 1511
1466 1466 1468 1469 1471 1469 1472 1473 1475 1478 1478 1478 1478 1479 1479 1480 1481 1481 1480 1481 1481 1481 1483 1481 1482 1483 1484 1486 1488 1491 1493 1496 1499 1501 1503 1505 1506 1507 1509 1510 1510 1510 1510
1461 1462 1463 1465 1463 1466 1465 1469 1471 1473 1474 1473 1473 1474 1474 1474 1475 1476 1475 1475 1476 1477 1477 1478 1478 1479 1480 1482 1484 1488 1490 1493 1496 1499 1502 1503 1505 1507 1508 1508 1509 1509 1509
1456 1457 1458 1458 1460 1463 1462 1464 1467 1468 1470 1470 1469 1470 1471 1468 1468 1470 1471 1471 1471 1472 1473 1473 1474 1475 1476 1478 1481 1484 1487 1490 1493 1496 1499 1501 1503 1505 1507 1507 1507 1508 1508
1450 1451 1452 1453 1456 1457 1457 1460 1463 1465 1465 1465 1465 1466 1467 1464 1465 1466 1467 1468 1468 1468 1468 1469 1469 1471 1473 1475 1478 1481 1483 1487 1490 1493 1496 1499 1501 1503 1505 1505 1506 1506 1506
1444 1446 1449 1451 1451 1452 1455 1456 1459 1462 1460 1460 1462 1464 1463 1462 1461 1464 1465 1465 1465 1465 1466 1466 1467 1469 1471 1473 1476 1478 1481 1485 1488 1492 1494 1497 1499 1501 1502 1503 1504 1504 1504